When you browse on this site, cookies collect data to enhance your experience and personalize the content and advertising you see.
Visit our Privacy Policy to learn more. By continuing to use the site, you agree to this use of cookies and data.
  • In Hungary
  • List of Countries
  • For 7 days
  • Water Temperature
  • Satellite Maps
  • Weather Map
  • News
  • Weather Widgets
  • user-avatar
    Login

    Hourly Weather Akreshory

    Today, 16 July, Tuesday

    Time Temperature Precipitation Wind Pressure Humidity
    00:00 +14°C° 0 mm 2 mps 702 mmHg 93%
    01:00 +13°C° 0 mm 2 mps 702 mmHg 97%
    02:00 +13°C° 0 mm 2 mps 702 mmHg 95%
    03:00 +13°C° 0 mm 2 mps 702 mmHg 94%
    04:00 +13°C° 0 mm 2 mps 701 mmHg 93%
    05:00 +11°C° 0 mm 3 mps 701 mmHg 93%
    06:00 +13°C° 0 mm 2 mps 701 mmHg 95%
    07:00 +14°C° 0 mm 2 mps 702 mmHg 94%
    08:00 +15°C° 0 mm 2 mps 702 mmHg 90%
    09:00 +16°C° 0 mm 2 mps 702 mmHg 91%
    10:00 +17°C° 0 mm 2 mps 703 mmHg 89%
    11:00 +17°C° 0 mm 2 mps 703 mmHg 86%
    12:00 +18°C° 0 mm 2 mps 702 mmHg 87%
    13:00 +19°C° 0 mm 2 mps 702 mmHg 84%
    14:00 +20°C° 0 mm 1 mps 702 mmHg 85%
    15:00 +19°C° 0 mm 2 mps 701 mmHg 85%
    16:00 +20°C° 0.2 mm 1 mps 701 mmHg 87%
    17:00 +19°C° 0.4 mm 2 mps 701 mmHg 90%
    18:00 +19°C° 0.9 mm 1 mps 700 mmHg 91%
    19:00 +19°C° 0.1 mm 1 mps 700 mmHg 91%
    20:00 +19°C° 0 mm 1 mps 700 mmHg 100%
    21:00 +18°C° 0 mm 1 mps 700 mmHg 98%
    22:00 +17°C° 0 mm 2 mps 700 mmHg 90%
    23:00 +16°C° 0 mm 2 mps 701 mmHg 85%

    Tomorrow, 17 July, Wednesday

    Time Temperature Precipitation Wind Pressure Humidity
    00:00 +16°C° 0 mm 3 mps 701 mmHg 84%
    01:00 +16°C° 0 mm 2 mps 700 mmHg 85%
    02:00 +13°C° 0 mm 3 mps 700 mmHg 100%
    03:00 +12°C° 0.9 mm 3 mps 700 mmHg 100%
    04:00 +14°C° 0.1 mm 2 mps 700 mmHg 99%
    05:00 +14°C° 0 mm 1 mps 700 mmHg 93%
    06:00 +14°C° 0 mm 1 mps 700 mmHg 98%
    07:00 +13°C° 0 mm 3 mps 700 mmHg 98%
    08:00 +14°C° 0 mm 3 mps 700 mmHg 99%
    09:00 +14°C° 0 mm 3 mps 701 mmHg 99%
    10:00 +15°C° 0 mm 4 mps 701 mmHg 98%
    11:00 +17°C° 0 mm 4 mps 701 mmHg 96%
    12:00 +17°C° 0 mm 3 mps 701 mmHg 92%
    13:00 +18°C° 0 mm 3 mps 701 mmHg 93%
    14:00 +18°C° 0.5 mm 2 mps 701 mmHg 90%
    15:00 +19°C° 0.2 mm 1 mps 701 mmHg 91%
    16:00 +19°C° 0.4 mm 1 mps 700 mmHg 97%
    17:00 +20°C° 0 mm 1 mps 700 mmHg 91%
    18:00 +18°C° 1.5 mm 3 mps 700 mmHg 96%
    19:00 +18°C° 0.4 mm 3 mps 700 mmHg 99%
    20:00 +17°C° 1.9 mm 2 mps 700 mmHg 98%
    21:00 +17°C° 0 mm 2 mps 701 mmHg 95%
    22:00 +16°C° 0 mm 2 mps 701 mmHg 96%
    23:00 +16°C° 0 mm 2 mps 701 mmHg 93%

    Day after tomorrow, 18 July, Thursday

    Time Temperature Precipitation Wind Pressure Humidity
    00:00 +15°C° 0 mm 2 mps 701 mmHg 92%
    01:00 +15°C° 0 mm 2 mps 701 mmHg 90%
    02:00 +14°C° 0 mm 2 mps 701 mmHg 88%
    03:00 +14°C° 0 mm 2 mps 701 mmHg 87%
    04:00 +13°C° 0 mm 2 mps 701 mmHg 87%
    05:00 +13°C° 0 mm 1 mps 701 mmHg 87%
    06:00 +13°C° 0 mm 1 mps 701 mmHg 89%
    07:00 +14°C° 0 mm 1 mps 701 mmHg 94%
    08:00 +15°C° 0 mm 2 mps 702 mmHg 95%
    09:00 +16°C° 0 mm 2 mps 702 mmHg 96%
    10:00 +16°C° 0 mm 3 mps 703 mmHg 95%
    11:00 +17°C° 0 mm 3 mps 703 mmHg 94%
    12:00 +17°C° 0 mm 3 mps 703 mmHg 92%
    13:00 +18°C° 0 mm 3 mps 703 mmHg 91%
    14:00 +18°C° 0 mm 3 mps 703 mmHg 92%
    15:00 +17°C° 0.9 mm 2 mps 703 mmHg 99%
    16:00 +19°C° 0.4 mm 1 mps 703 mmHg 96%
    17:00 +18°C° 0.7 mm 1 mps 703 mmHg 97%
    18:00 +18°C° 0.1 mm 1 mps 703 mmHg 99%
    19:00 +17°C° 0 mm 2 mps 703 mmHg 100%
    20:00 +16°C° 0 mm 1 mps 703 mmHg 100%
    21:00 +15°C° 0 mm 0 mps 704 mmHg 100%
    22:00 +16°C° 0 mm 1 mps 704 mmHg 100%
    23:00 +16°C° 0 mm 1 mps 704 mmHg 100%

    19 July, Friday

    Time Temperature Precipitation Wind Pressure Humidity
    00:00 +16°C° 0 mm 1 mps 704 mmHg 99%
    01:00 +15°C° 0 mm 1 mps 704 mmHg 98%
    02:00 +15°C° 0 mm 1 mps 704 mmHg 98%
    03:00 +14°C° 0 mm 0 mps 703 mmHg 98%
    04:00 +14°C° 0 mm 0 mps 703 mmHg 97%
    05:00 +14°C° 0 mm 0 mps 704 mmHg 94%
    06:00 +14°C° 0 mm 0 mps 703 mmHg 94%
    07:00 +15°C° 0 mm 0 mps 704 mmHg 95%
    08:00 +16°C° 0 mm 0 mps 704 mmHg 96%
    09:00 +19°C° 0 mm 1 mps 705 mmHg 97%
    10:00 +20°C° 0 mm 1 mps 705 mmHg 98%
    11:00 +20°C° 0 mm 2 mps 705 mmHg 96%
    12:00 +21°C° 0 mm 2 mps 705 mmHg 94%
    13:00 +21°C° 0 mm 3 mps 705 mmHg 93%
    14:00 +21°C° 0.2 mm 2 mps 705 mmHg 90%

    20 July, Saturday

    Time Temperature Precipitation Wind Pressure Humidity

    21 July, Sunday

    Time Temperature Precipitation Wind Pressure Humidity
    Show more